When you browse on this site, cookies collect data to enhance your experience and personalize the content and advertising you see.
Visit our Privacy Policy to learn more. By continuing to use the site, you agree to this use of cookies and data.
  • In Latvia
  • List of Countries
  • For 7 days
  • Water Temperature
  • Weather Map
  • Weather Widgets
  • user-avatar
    Login

    Hourly Weather Bystryanskiy

    Today, 25 August, Sunday

    Time Temperature Precipitation Wind Pressure Humidity
    00:00 +30°C° 0 mm 6 mps 752 mmHg 37%
    01:00 +29°C° 0 mm 6 mps 752 mmHg 39%
    02:00 +29°C° 0 mm 5 mps 752 mmHg 41%
    03:00 +28°C° 0 mm 5 mps 752 mmHg 44%
    04:00 +28°C° 0 mm 4 mps 752 mmHg 44%
    05:00 +27°C° 0 mm 4 mps 752 mmHg 45%
    06:00 +27°C° 0 mm 3 mps 752 mmHg 45%
    07:00 +28°C° 0 mm 4 mps 753 mmHg 43%
    08:00 +30°C° 0 mm 4 mps 753 mmHg 41%
    09:00 +32°C° 0 mm 5 mps 754 mmHg 39%
    10:00 +33°C° 0 mm 5 mps 753 mmHg 36%
    11:00 +35°C° 0 mm 5 mps 753 mmHg 32%
    12:00 +36°C° 0 mm 5 mps 753 mmHg 28%
    13:00 +36°C° 0 mm 5 mps 753 mmHg 28%
    14:00 +36°C° 0 mm 5 mps 753 mmHg 27%
    15:00 +36°C° 0 mm 5 mps 753 mmHg 26%
    16:00 +35°C° 0.1 mm 5 mps 754 mmHg 30%
    17:00 +33°C° 0.1 mm 5 mps 754 mmHg 34%
    18:00 +30°C° 0.1 mm 5 mps 754 mmHg 38%
    19:00 +28°C° 0 mm 5 mps 754 mmHg 45%
    20:00 +26°C° 0 mm 4 mps 754 mmHg 53%
    21:00 +24°C° 0 mm 3 mps 755 mmHg 61%
    22:00 +24°C° 0 mm 2 mps 755 mmHg 64%
    23:00 +23°C° 0 mm 1 mps 755 mmHg 67%

    Tomorrow, 26 August, Monday

    Time Temperature Precipitation Wind Pressure Humidity
    00:00 +22°C° 0 mm 1 mps 755 mmHg 70%
    01:00 +22°C° 0 mm 1 mps 755 mmHg 70%
    02:00 +22°C° 0 mm 1 mps 756 mmHg 70%
    03:00 +21°C° 0 mm 2 mps 756 mmHg 70%
    04:00 +21°C° 0 mm 2 mps 756 mmHg 69%
    05:00 +21°C° 0 mm 2 mps 756 mmHg 69%
    06:00 +21°C° 0 mm 2 mps 756 mmHg 68%
    07:00 +23°C° 0 mm 2 mps 756 mmHg 59%
    08:00 +25°C° 0 mm 3 mps 757 mmHg 49%
    09:00 +27°C° 0 mm 3 mps 757 mmHg 39%
    10:00 +29°C° 0 mm 4 mps 757 mmHg 37%
    11:00 +30°C° 0 mm 4 mps 757 mmHg 36%
    12:00 +32°C° 0 mm 4 mps 757 mmHg 34%
    13:00 +33°C° 0 mm 4 mps 756 mmHg 33%
    14:00 +33°C° 0 mm 5 mps 756 mmHg 31%
    15:00 +33°C° 0 mm 5 mps 756 mmHg 30%
    16:00 +32°C° 0 mm 5 mps 756 mmHg 31%
    17:00 +32°C° 0 mm 5 mps 756 mmHg 32%
    18:00 +30°C° 0 mm 5 mps 755 mmHg 33%
    19:00 +29°C° 0 mm 5 mps 756 mmHg 36%
    20:00 +27°C° 0 mm 5 mps 756 mmHg 38%
    21:00 +25°C° 0 mm 5 mps 756 mmHg 41%
    22:00 +25°C° 0 mm 5 mps 756 mmHg 41%
    23:00 +23°C° 0 mm 5 mps 756 mmHg 42%

    Day after tomorrow, 27 August, Tuesday

    Time Temperature Precipitation Wind Pressure Humidity
    00:00 +23°C° 0 mm 5 mps 756 mmHg 42%
    01:00 +22°C° 0 mm 4 mps 756 mmHg 44%
    02:00 +22°C° 0 mm 4 mps 756 mmHg 45%
    03:00 +21°C° 0 mm 4 mps 755 mmHg 47%
    04:00 +21°C° 0 mm 3 mps 755 mmHg 51%
    05:00 +20°C° 0 mm 3 mps 755 mmHg 55%
    06:00 +20°C° 0 mm 2 mps 755 mmHg 59%
    07:00 +23°C° 0 mm 2 mps 755 mmHg 55%
    08:00 +24°C° 0 mm 2 mps 755 mmHg 51%
    09:00 +26°C° 0 mm 2 mps 755 mmHg 47%
    10:00 +28°C° 0 mm 2 mps 755 mmHg 43%
    11:00 +29°C° 0 mm 2 mps 755 mmHg 39%
    12:00 +30°C° 0 mm 2 mps 754 mmHg 35%
    13:00 +30°C° 0 mm 2 mps 754 mmHg 35%
    14:00 +30°C° 0 mm 1 mps 753 mmHg 34%
    15:00 +30°C° 0 mm 1 mps 753 mmHg 33%
    16:00 +30°C° 0 mm 1 mps 753 mmHg 35%
    17:00 +29°C° 0 mm 1 mps 752 mmHg 37%
    18:00 +29°C° 0 mm 2 mps 752 mmHg 38%
    19:00 +27°C° 0 mm 1 mps 752 mmHg 41%
    20:00 +26°C° 0 mm 1 mps 752 mmHg 43%
    21:00 +24°C° 0 mm 1 mps 752 mmHg 46%
    22:00 +24°C° 0 mm 2 mps 752 mmHg 45%
    23:00 +23°C° 0 mm 2 mps 753 mmHg 43%

    28 August, Wednesday

    Time Temperature Precipitation Wind Pressure Humidity
    00:00 +21°C° 0 mm 3 mps 753 mmHg 42%
    01:00 +20°C° 0 mm 3 mps 752 mmHg 43%
    02:00 +20°C° 0 mm 3 mps 752 mmHg 45%
    03:00 +19°C° 0 mm 3 mps 752 mmHg 47%
    04:00 +19°C° 0 mm 3 mps 752 mmHg 49%
    05:00 +18°C° 0 mm 3 mps 752 mmHg 50%
    06:00 +18°C° 0 mm 3 mps 752 mmHg 52%
    07:00 +20°C° 0 mm 3 mps 752 mmHg 49%
    08:00 +22°C° 0 mm 4 mps 753 mmHg 46%
    09:00 +25°C° 0 mm 4 mps 753 mmHg 42%
    10:00 +26°C° 0 mm 5 mps 753 mmHg 41%
    11:00 +27°C° 0 mm 5 mps 752 mmHg 39%
    12:00 +28°C° 0 mm 5 mps 752 mmHg 37%
    13:00 +28°C° 0 mm 5 mps 752 mmHg 34%
    14:00 +28°C° 0 mm 5 mps 752 mmHg 31%
    15:00 +29°C° 0 mm 6 mps 752 mmHg 27%
    16:00 +28°C° 0 mm 5 mps 752 mmHg 28%
    17:00 +27°C° 0 mm 5 mps 752 mmHg 30%
    18:00 +26°C° 0 mm 5 mps 752 mmHg 31%
    19:00 +23°C° 0 mm 5 mps 753 mmHg 34%
    20:00 +21°C° 0 mm 4 mps 753 mmHg 36%
    21:00 +19°C° 0 mm 3 mps 753 mmHg 39%
    22:00 +18°C° 0 mm 4 mps 754 mmHg 41%
    23:00 +17°C° 0 mm 4 mps 754 mmHg 44%

    29 August, Thursday

    Time Temperature Precipitation Wind Pressure Humidity
    00:00 +15°C° 0 mm 4 mps 754 mmHg 46%
    01:00 +14°C° 0 mm 4 mps 754 mmHg 47%
    02:00 +13°C° 0 mm 3 mps 754 mmHg 47%
    03:00 +13°C° 0 mm 3 mps 755 mmHg 47%
    04:00 +12°C° 0 mm 3 mps 755 mmHg 49%
    05:00 +11°C° 0 mm 4 mps 755 mmHg 52%
    06:00 +11°C° 0 mm 4 mps 755 mmHg 54%
    07:00 +12°C° 0 mm 4 mps 755 mmHg 50%
    08:00 +14°C° 0 mm 4 mps 756 mmHg 46%
    09:00 +15°C° 0 mm 5 mps 756 mmHg 43%
    10:00 +17°C° 0 mm 4 mps 756 mmHg 39%
    11:00 +19°C° 0 mm 4 mps 755 mmHg 35%
    12:00 +20°C° 0 mm 4 mps 755 mmHg 31%
    13:00 +20°C° 0 mm 4 mps 755 mmHg 31%
    14:00 +21°C° 0 mm 5 mps 755 mmHg 31%
    15:00 +22°C° 0 mm 5 mps 754 mmHg 31%
    16:00 +21°C° 0 mm 5 mps 754 mmHg 33%
    17:00 +20°C° 0 mm 5 mps 755 mmHg 35%
    18:00 +19°C° 0 mm 5 mps 755 mmHg 37%
    19:00 +17°C° 0 mm 5 mps 755 mmHg 39%
    20:00 +17°C° 0 mm 4 mps 755 mmHg 41%
    21:00 +15°C° 0 mm 4 mps 755 mmHg 42%
    22:00 +14°C° 0 mm 4 mps 755 mmHg 43%
    23:00 +14°C° 0 mm 4 mps 755 mmHg 43%

    30 August, Friday

    Time Temperature Precipitation Wind Pressure Humidity
    00:00 +13°C° 0 mm 5 mps 755 mmHg 44%
    01:00 +13°C° 0 mm 5 mps 755 mmHg 46%
    02:00 +12°C° 0 mm 4 mps 755 mmHg 48%
    03:00 +12°C° 0 mm 4 mps 755 mmHg 50%
    04:00 +11°C° 0 mm 4 mps 756 mmHg 52%
    05:00 +11°C° 0 mm 4 mps 756 mmHg 54%
    06:00 +10°C° 0 mm 4 mps 756 mmHg 56%
    07:00 +12°C° 0 mm 5 mps 756 mmHg 52%
    08:00 +14°C° 0 mm 5 mps 756 mmHg 48%
    09:00 +16°C° 0 mm 5 mps 756 mmHg 43%
    10:00 +17°C° 0 mm 5 mps 756 mmHg 39%
    11:00 +19°C° 0 mm 5 mps 756 mmHg 34%
    12:00 +21°C° 0 mm 5 mps 756 mmHg 30%
    13:00 +21°C° 0 mm 5 mps 756 mmHg 29%
    14:00 +22°C° 0 mm 4 mps 755 mmHg 28%
    15:00 +22°C° 0 mm 4 mps 755 mmHg 26%
    16:00 +22°C° 0 mm 4 mps 755 mmHg 29%
    17:00 +21°C° 0 mm 4 mps 755 mmHg 31%
    18:00 +21°C° 0 mm 4 mps 755 mmHg 33%
    19:00 +19°C° 0 mm 4 mps 755 mmHg 39%
    20:00 +17°C° 0 mm 4 mps 755 mmHg 45%
    21:00 +14°C° 0 mm 4 mps 755 mmHg 51%
    22:00 +14°C° 0 mm 4 mps 755 mmHg 52%
    23:00 +14°C° 0 mm 4 mps 755 mmHg 54%
    Show more